Search your local weather  

 
Advertise Here

Hazardous Weather Conditions

No active alerts for HOUSTON, TEXAS

Current Conditions: HOUSTON, TEXAS

Overcast


68.0 F

Last Updated on May 12 2021, 12:53 pm CDT
Humidity: 78%
Wind Speed: N 13.8 mph
Barometer 30.15 in
Dewpoint: 61.0 F
Visibility: 10.00 mi
Precip: --
Heat Index: NA
Wind Chill: NA
Current conditions at:

Houston Intercontinental Airport, TX (KIAH)

Lat: 29.9844 Lon: -95.36074

Local Radar Image active severe weather and emergency alerts image image weather storm and storm spotter reports image weather observation monitoring service image
Local
Radar
Active
Alerts
Storm Reports Weather
Monitoring

5 Day Forecast for HOUSTON, TEXAS (77001)

Wednesday

T-storms Likely

High 75 °F
Wednesday
Night
Slight Chance of Rain
Low 63 °F
Thursday

Mostly Cloudy

High 78 °F
Thursday
Night
Mostly Clear

Low 60 °F
Friday

Mostly Cloudy

High 80 °F
Friday
Night
Partly Cloudy

Low 64 °F
Saturday

Partly Sunny

High 81 °F
Saturday
Night
Isolated T-storm

Low 68 °F
Sunday

Chance of T-storms

High 82 °F

Sign-up For Email & Text Message Weather Alert Notification Services


Advertise Here

Observation History for HOUSTON, TEXAS


Time Wind
(mph)
Vis
(mi)
Weather Precip (in) Temperature (F) Relative
Humidity
Wind
Chill
(F)
Heat
Index
(F)
Pressure
Air Dwpt altimeter
(in)
sea level
(mb)
12:53 pm CDT N 13.8 10.00 Overcast -- 68.0 61.0 78% NA NA 30.15 1020.9
11:53 am CDT N 9.2 10.00 Overcast -- 68.0 62.1 81% NA NA 30.15 1020.9
10:53 am CDT N 10.4 10.00 Overcast -- 68.0 62.1 81% NA NA 30.15 1020.8
9:53 am CDT N 11.5 10.00 Overcast -- 68.0 62.1 81% NA NA 30.13 1020.2
8:53 am CDT N 11.5 10.00 Overcast -- 67.0 62.1 84% NA NA 30.12 1019.8
7:53 am CDT N 11.5 7.00 Overcast Trace 66.0 62.1 87% NA NA 30.07 1018.3
6:53 am CDT N 17.3 2.50 Light Rain Fog/Mist Trace 66.0 62.1 87% NA NA 30.06 1017.7
5:53 am CDT N 9.2 10.00 Overcast -- 66.0 61.0 84% NA NA 30.04 1017.1
4:53 am CDT N 10.4 10.00 Overcast -- 66.0 62.1 87% NA NA 30.01 1016.3
3:53 am CDT NE 10.4 10.00 Overcast -- 66.0 61.0 84% NA NA 30.01 1016.3
2:53 am CDT N 13.8 10.00 Overcast -- 66.0 61.0 84% NA NA 30.02 1016.6
1:53 am CDT N 10.4 10.00 Overcast -- 67.0 62.1 84% NA NA 30.01 1016.3
12:53 am CDT NE 6.9 10.00 Overcast -- 67.0 62.1 84% NA NA 29.98 1015.1
11:53 pm CDT E 5.8 10.00 Overcast -- 68.0 61.0 78% NA NA 30.01 1016.2
10:53 pm CDT NE 15.0 10.00 Mostly Cloudy Trace 68.0 62.1 81% NA NA 29.99 1015.7
9:53 pm CDT NE 15.0 10.00 Mostly Cloudy -- 68.0 62.1 81% NA NA 29.98 1015.0
8:53 pm CDT NE 17.3 10.00 Mostly Cloudy -- 68.0 62.1 81% NA NA 29.94 1014.0
7:53 pm CDT N 18.4 10.00 Overcast 00.08 68.0 63.0 84% NA NA 29.95 1014.0
6:53 pm CDT N 20.7 G 31.1 10.00 Heavy Rain and Breezy Trace 69.0 64.0 84% NA NA 29.97 1014.7
5:53 pm CDT S 13.8 10.00 Overcast -- 86.0 71.1 61% NA 92 29.88 1011.8
4:53 pm CDT S 13.8 G 23.0 10.00 Mostly Cloudy -- 88.0 69.1 54% NA 92 29.86 1011.1
3:53 pm CDT S 13.8 G 24.2 10.00 Mostly Cloudy -- 87.0 71.1 59% NA 93 29.86 1011.0
2:53 pm CDT S 17.3 G 26.5 10.00 Mostly Cloudy -- 87.0 69.1 55% NA 91 29.87 1011.3
1:53 pm CDT SE 18.4 G 26.5 10.00 Mostly Cloudy -- 86.0 71.1 61% NA 92 29.90 1012.4

Regional Weather Observation

Houston, Hooks Memorial Airport, TX (KDWH)

Overcast
68.0 F

Houston Executive Airport, TX (KTME)

Overcast
70.0 F

John Dunn Helistop, TX (KMCJ)

Mostly Cloudy
66.0 F

Houston, Sugar Land Municipal / Hull Field Airport, TX (KSGR)

Overcast
71.0 F

Houston, Houston Hobby Airport, TX (KHOU)

Overcast
70.0 F

Conroe, Montgomery County Airport, TX (KCXO)

Overcast
68.0 F
Advertise Here

Advertise Here